Date String (YYYY-MM-DD hh:mm:ss) UTC,Instrument flags,absolute air pressure of the measurement (hPa),sample flow rate (lpm),inlet stack bypass flow (lpm),air temperature of the measurement (°C),ambient temperature measured by the external sensor (°C),aerosol sample conditioner tube jacket temperature (°C),OPC LED temperature (°C),internal box temperature (°C),relative humidity of the measurement (%),span deviation,mass concentration of particles derived from Lorenz-Mie calculation of OPC scattering (μg/m³),mass concentration of particles derived from Lorenz-Mie calculation of OPC scattering (μg/m³),mass concentration of particles derived from Lorenz-Mie calculation of OPC scattering (μg/m³)
DateTimeUTC,F1_M11,P_M11,Q1_M11,Q2_M11,T1_M11,T2_M11,T3_M11,T4_M11,T5_M11,U1_M11,ZSPAN_M11,X2_M11,X0_M11,X1_M11
2023-10-24 19:00:00,SystemResetWarning,0825.4,4.99,000.00,028.6,026.7,000.0,037.2,030.3,19.0,0000.0,0006.78,0021.88,0004.34
2023-10-24 19:01:00,SystemResetWarning,0825.4,5.00,000.00,028.6,026.9,000.0,037.2,030.3,19.0,0000.0,0006.78,0021.48,0004.35
2023-10-24 19:02:00,SystemResetWarning,0825.4,5.00,000.00,028.7,027.1,000.0,037.2,030.4,19.1,0000.0,0006.74,0021.38,0004.33
2023-10-24 19:03:00,SystemResetWarning,0825.3,5.00,000.00,028.7,027.3,000.0,037.2,030.4,19.2,0000.0,0006.74,0020.02,0004.32
2023-10-24 19:04:00,SystemResetWarning,0825.3,5.00,000.00,028.7,027.4,000.0,037.2,030.5,19.0,0000.0,0006.65,0020.59,0004.30
2023-10-24 19:05:00,SystemResetWarning,0825.3,5.00,000.00,028.8,027.5,000.0,037.2,030.5,18.9,0000.0,0006.57,0021.43,0004.29
2023-10-24 19:06:00,SystemResetWarning,0825.3,5.00,000.00,028.8,027.6,000.0,037.2,030.5,18.7,0000.0,0006.59,0021.33,0004.29
2023-10-24 19:07:00,SystemResetWarning,0825.2,4.98,000.00,028.8,027.7,000.0,037.2,030.6,18.5,0000.0,0006.53,0021.09,0004.29
2023-10-24 19:08:00,SystemResetWarning,0825.3,5.01,000.00,028.9,027.8,000.0,037.2,030.6,18.6,0000.0,0006.49,0021.93,0004.28
2023-10-24 19:09:00,SystemResetWarning,0825.3,5.02,000.00,028.9,027.8,000.0,037.3,030.6,19.0,0000.0,0006.49,0021.03,0004.28
2023-10-24 19:10:00,SystemResetWarning,0825.3,4.97,000.00,029.0,027.9,000.0,037.3,030.7,18.7,0000.0,0006.50,0021.44,0004.28
2023-10-24 19:11:00,SystemResetWarning,0825.3,5.01,000.00,029.0,028.0,000.0,037.3,030.7,18.9,0000.0,0006.52,0021.16,0004.29
2023-10-24 19:12:00,SystemResetWarning,0825.3,5.00,000.00,029.0,026.9,000.0,037.3,030.7,18.9,0000.0,0006.52,0021.11,0004.31
2023-10-24 19:13:00,SystemResetWarning,0825.3,4.98,000.00,028.9,024.9,000.0,037.2,030.5,19.1,0000.0,0006.58,0021.71,0004.33
2023-10-24 19:14:00,SystemResetWarning,0825.3,5.01,000.00,028.8,024.2,000.0,037.2,030.3,19.1,0000.0,0006.58,0022.67,0004.36
2023-10-24 19:15:00,SystemResetWarning,0825.3,5.01,000.00,028.7,024.4,000.0,037.1,030.0,19.2,0000.0,0006.65,0022.11,0004.38
2023-10-24 19:16:00,SystemResetWarning,0825.2,4.99,000.00,028.6,024.8,000.0,037.1,029.9,19.3,0000.0,0006.74,0020.99,0004.41
2023-10-24 19:17:00,SystemResetWarning,0825.2,5.00,000.00,028.5,025.3,000.0,037.1,030.0,19.5,0000.0,0006.84,0022.20,0004.44
2023-10-24 19:18:00,SystemResetWarning,0825.2,5.01,000.00,028.5,025.7,000.0,037.1,030.1,19.5,0000.0,0006.88,0023.53,0004.45
2023-10-24 19:19:00,SystemResetWarning,0825.2,5.00,000.00,028.5,026.0,000.0,037.1,030.1,19.4,0000.0,0006.92,0023.48,0004.46
2023-10-24 19:20:00,SystemResetWarning,0825.2,5.00,000.00,028.5,026.4,000.0,037.1,030.2,19.1,0000.0,0006.96,0024.34,0004.48
2023-10-24 19:21:00,SystemResetWarning,0825.2,5.00,000.00,028.6,026.6,000.0,037.1,030.2,19.3,0000.0,0006.96,0024.86,0004.46
2023-10-24 19:22:00,SystemResetWarning,0825.1,5.00,000.00,028.6,026.9,000.0,037.1,030.3,19.3,0000.0,0006.88,0026.08,0004.45
2023-10-24 19:23:00,SystemResetWarning,0825.1,5.00,000.00,028.6,027.1,000.0,037.1,030.3,19.5,0000.0,0006.86,0027.18,0004.44
2023-10-24 19:24:00,SystemResetWarning,0825.1,4.99,000.00,028.6,027.2,000.0,037.1,030.4,19.6,0000.0,0006.85,0027.85,0004.44
2023-10-24 19:25:00,SystemResetWarning,0825.1,4.99,000.00,028.7,027.4,000.0,037.1,030.4,19.5,0000.0,0006.87,0027.58,0004.42
2023-10-24 19:26:00,SystemResetWarning,0825.0,5.01,000.00,028.7,027.5,000.0,037.1,030.5,19.5,0000.0,0006.90,0027.20,0004.41
2023-10-24 19:27:00,SystemResetWarning,0825.1,5.00,000.00,028.8,027.6,000.0,037.1,030.5,18.9,0000.0,0006.90,0027.59,0004.40
2023-10-24 19:28:00,SystemResetWarning,0825.0,5.00,000.00,028.8,027.7,000.0,037.2,030.5,19.1,0000.0,0006.81,0026.30,0004.37
2023-10-24 19:29:00,SystemResetWarning,0825.0,5.00,000.00,028.8,027.8,000.0,037.2,030.6,18.9,0000.0,0006.73,0026.04,0004.34
2023-10-24 19:30:00,SystemResetWarning,0825.1,5.00,000.00,028.9,027.9,000.0,037.2,030.6,19.2,0000.0,0006.68,0025.86,0004.31
2023-10-24 19:31:00,SystemResetWarning,0825.0,5.01,000.00,028.9,027.9,000.0,037.2,030.7,19.4,0000.0,0006.55,0024.44,0004.29
2023-10-24 19:32:00,SystemResetWarning,0825.1,5.01,000.00,029.0,027.9,000.0,037.3,030.7,19.2,0000.0,0006.53,0024.41,0004.28
2023-10-24 19:33:00,SystemResetWarning,0825.1,4.97,000.00,029.0,026.5,000.0,037.2,030.7,18.8,0000.0,0006.49,0023.20,0004.26
2023-10-24 19:34:00,SystemResetWarning,0825.0,5.02,000.00,028.9,025.4,000.0,037.2,030.5,18.7,0000.0,0006.45,0023.26,0004.23
2023-10-24 19:35:00,SystemResetWarning,0825.0,5.01,000.00,028.8,025.3,000.0,037.1,030.4,18.7,0000.0,0006.39,0022.73,0004.19
2023-10-24 19:36:00,SystemResetWarning,0825.0,5.00,000.00,028.7,025.5,000.0,037.2,030.2,18.5,0000.0,0006.34,0022.08,0004.18
2023-10-24 19:37:00,SystemResetWarning,0825.0,5.00,000.00,028.7,025.9,000.0,037.2,030.2,18.6,0000.0,0006.25,0022.25,0004.17
2023-10-24 19:38:00,SystemResetWarning,0825.0,5.00,000.00,028.7,026.2,000.0,037.2,030.3,18.5,0000.0,0006.20,0022.48,0004.16
2023-10-24 19:39:00,SystemResetWarning,0825.0,5.00,000.00,028.7,026.5,000.0,037.2,030.3,19.0,0000.0,0006.25,0022.80,0004.14
2023-10-24 19:40:00,SystemResetWarning,0825.0,5.00,000.00,028.7,026.8,000.0,037.2,030.4,19.1,0000.0,0006.25,0022.38,0004.13
2023-10-24 19:41:00,SystemResetWarning,0824.9,5.00,000.00,028.7,027.0,000.0,037.2,030.4,18.9,0000.0,0006.31,0022.30,0004.11
2023-10-24 19:42:00,SystemResetWarning,0824.9,5.00,000.00,028.8,027.2,000.0,037.2,030.4,18.9,0000.0,0006.33,0022.73,0004.09
2023-10-24 19:43:00,SystemResetWarning,0824.9,5.00,000.00,028.8,027.4,000.0,037.2,030.5,18.8,0000.0,0006.32,0022.27,0004.06
2023-10-24 19:44:00,SystemResetWarning,0824.9,5.00,000.00,028.8,027.5,000.0,037.2,030.5,18.7,0000.0,0006.26,0022.01,0004.02
2023-10-24 19:45:00,SystemResetWarning,0824.9,5.00,000.00,028.9,027.6,000.0,037.3,030.6,18.6,0000.0,0006.21,0021.76,0003.99
2023-10-24 19:46:00,SystemResetWarning,0824.9,4.99,000.00,028.9,027.7,000.0,037.3,030.6,18.5,0000.0,0006.20,0021.33,0003.96
2023-10-24 19:47:00,SystemResetWarning,0824.9,5.00,000.00,028.9,027.1,000.0,037.3,030.6,18.5,0000.0,0006.15,0022.35,0003.94
2023-10-24 19:48:00,SystemResetWarning,0824.9,5.00,000.00,028.8,025.1,000.0,037.2,030.4,18.6,0000.0,0006.15,0022.56,0003.92
2023-10-24 19:49:00,SystemResetWarning,0824.9,5.01,000.00,028.7,024.1,000.0,037.1,030.2,18.7,0000.0,0006.09,0021.97,0003.91
2023-10-24 19:50:00,SystemResetWarning,0824.9,5.01,000.00,028.6,024.3,000.0,037.1,030.0,19.1,0000.0,0006.03,0022.74,0003.91
2023-10-24 19:51:00,SystemResetWarning,0824.9,5.00,000.00,028.5,024.6,000.0,037.1,029.9,19.4,0000.0,0005.99,0022.89,0003.91
2023-10-24 19:52:00,SystemResetWarning,0824.9,4.99,000.00,028.5,025.1,000.0,037.1,029.9,19.5,0000.0,0005.95,0022.66,0003.93
2023-10-24 19:53:00,SystemResetWarning,0824.9,5.01,000.00,028.4,025.5,000.0,037.0,030.0,19.4,0000.0,0005.94,0022.71,0003.94
2023-10-24 19:54:00,SystemResetWarning,0824.9,5.01,000.00,028.4,025.9,000.0,037.0,030.0,19.4,0000.0,0005.90,0022.56,0003.97
2023-10-24 19:55:00,SystemResetWarning,0824.9,5.00,000.00,028.4,026.3,000.0,037.0,030.1,19.4,0000.0,0005.91,0022.30,0003.99
2023-10-24 19:56:00,SystemResetWarning,0824.9,5.00,000.00,028.5,026.6,000.0,037.0,030.1,19.3,0000.0,0005.97,0021.98,0003.99
2023-10-24 19:57:00,SystemResetWarning,0824.9,5.00,000.00,028.5,026.8,000.0,037.0,030.2,19.2,0000.0,0006.03,0021.90,0004.02
2023-10-24 19:58:00,SystemResetWarning,0824.8,5.00,000.00,028.5,027.0,000.0,037.0,030.2,19.1,0000.0,0006.06,0021.31,0004.04
2023-10-24 19:59:00,SystemResetWarning,0824.8,4.99,000.00,028.6,027.2,000.0,037.0,030.3,19.2,0000.0,0006.07,0020.95,0004.05
